Tracking 31027 objects as of 19-Jul-2025
HD Live streaming from Space Station
objects crossing your sky now

PEARL-1H

Track PEARL-1H now!
10-day predictions
PEARL-1H is classified as:


NORAD ID: 58265
Int'l Code: 2023-174K
Perigee: 427.9 km
Apogee: 434.7 km
Inclination: 97.4 °
Period: 93.1 minutes
Semi major axis: 6802 km
RCS: Unknown
Launch date: November 11, 2023
Source: (TBD)
Launch site: AIR FORCE WESTERN TEST RANGE (AFWTR)

Uplink (MHz):
Downlink (MHz): 435.390
Beacon (MHz):
Mode: 9600bps GMSK
Call sign: PEARLH
Status: Active

Your satellite tracking list
CZ-3A R/B
Track 1 satellite(s)




NASA's NSSDC Master Catalog

Two Line Element Set (TLE):
1 58265U 23174K   25199.82637084  .00035048  00000-0  68298-3 0  9993
2 58265  97.4037 280.6274 0004997 269.5666  90.5011 15.47449672 94396
Source of the keplerian elements: AFSPC